Location: Baili�vre
(50.0696°N, 4.2409°E)
Time: 16:08:48
(UTC+00:00)

Cosmos 2369 - Pass Details

Date: 08 August 2020
Orbit: 838 x 857 km, 71.0° (Epoch: 24 September)

Event Time Altitude Azimuth Distance (km) Brightness Sun altitude
Rises 19:54:32 0° 331° (NNW) 3,440 8.2 -6.5°
Reaches altitude 10° 19:57:02 10° 335° (NNW) 2,501 7.2 -6.8°
Maximum altitude 20:02:46 65° 57° (ENE) 942 3.9 -7.6°
Drops below altitude 10° 20:08:26 10° 140° (SE) 2,485 5.5 -8.3°
Enters shadow 20:08:34 - 140° (SE) 2,533 5.5 -8.3°
